Theta_e
322 323 326 326 327 328 331 334 328 327 329 323 317 320 318 317 321 318 318 317 319 316 313 316 317 318 321 325 323 318 318 321 323 328 328 319 310 306 306 308 312 315 316 319 321 322 323 326 328 328 329 329 330 331 331 331 332 334 335 335 336 336 336 337 337 337 337 338 337 337 338 338 338 338 338 339 339 339 339 339 338 338 337 337 337 337 337 337 337 337 337 337 337 337 337 337 336
323 326 326 326 326 327 332 335 334 330 330 320 315 320 315 317 319 317 319 317 318 314 312 314 316 317 317 317 317 320 319 316 316 321 316 310 310 305 304 306 308 312 314 316 318 320 321 324 325 326 326 327 327 327 328 328 328 330 332 333 334 334 334 335 335 335 335 336 336 337 337 336 337 337 337 337 338 338 339 338 339 339 338 338 338 338 338 338 337 337 337 337 337 337 337 337 337
325 327 325 327 326 327 336 335 331 332 330 321 319 323 316 316 316 315 317 316 316 312 312 314 315 313 314 319 318 321 320 314 313 316 311 306 309 305 302 303 304 307 310 314 315 317 318 319 321 323 324 324 324 325 325 325 326 326 328 330 330 331 332 333 333 334 334 335 335 335 335 335 335 336 336 336 337 337 337 337 338 338 338 338 338 339 339 338 338 338 337 337 337 337 337 338 338
324 326 324 328 327 331 349 340 333 335 329 324 321 322 323 321 316 314 313 314 313 311 314 316 315 310 314 320 315 318 318 312 310 313 310 304 305 303 301 301 301 303 306 310 311 312 313 315 317 318 320 321 321 321 321 322 323 323 324 325 326 327 328 329 330 332 333 333 334 334 334 334 334 335 334 334 335 335 336 336 336 337 337 337 337 338 338 339 338 337 337 336 336 336 337 338 339
321 324 322 326 329 330 341 331 330 331 322 326 322 318 330 327 317 315 313 313 312 312 315 317 317 311 310 311 311 317 313 311 309 308 307 302 302 301 300 300 299 300 301 303 305 306 307 309 311 313 315 317 317 317 317 318 319 320 320 321 322 323 324 325 326 327 328 329 330 330 330 331 332 333 333 332 332 333 333 334 335 335 336 336 336 336 337 338 338 338 337 337 336 336 336 337 337
320 322 321 322 321 320 324 321 321 321 318 327 322 317 328 324 315 316 315 314 314 313 314 316 316 312 309 306 307 310 308 311 309 305 304 301 301 299 298 298 298 298 298 298 298 299 300 302 304 306 308 310 311 311 311 312 313 314 315 316 316 317 319 320 321 322 323 324 324 325 325 326 327 328 329 330 331 331 331 332 333 333 334 334 335 335 336 336 337 337 337 338 337 337 336 336 337
320 323 324 323 321 322 328 326 322 322 317 318 321 318 320 318 313 315 316 315 314 314 314 311 311 313 311 306 306 304 305 309 305 304 302 300 300 298 298 297 297 297 297 297 296 296 296 297 298 299 301 302 303 303 303 303 304 305 307 308 309 310 312 314 316 318 319 320 320 320 321 321 322 323 324 326 327 328 329 330 330 331 331 332 333 334 335 335 336 336 336 337 338 337 337 336 336
321 323 325 330 332 331 334 327 322 324 318 313 317 317 318 317 313 316 317 315 316 314 312 309 308 316 312 306 309 305 304 305 302 301 300 299 298 297 298 297 297 297 297 296 296 296 296 296 296 297 297 297 298 298 298 298 299 299 300 300 301 303 304 306 309 311 313 315 315 316 317 318 319 321 321 322 324 325 326 327 328 329 329 329 330 331 332 333 335 335 335 336 337 337 336 336 335
318 320 323 330 333 332 330 321 317 319 318 316 315 316 319 317 314 316 318 315 315 313 312 309 308 315 311 306 308 304 303 303 301 300 298 298 297 297 297 297 297 297 296 295 295 296 296 296 296 296 296 296 296 296 296 296 296 297 297 297 297 298 299 300 301 303 304 306 308 309 311 313 315 317 319 320 321 322 323 324 325 326 326 326 327 328 329 329 331 333 334 335 336 336 336 336 336
318 320 324 330 331 327 322 318 321 320 315 317 315 315 318 314 314 315 318 316 313 312 310 309 308 311 309 306 305 303 303 302 300 299 297 297 296 296 296 296 297 297 297 295 295 295 295 296 295 296 295 296 296 296 296 296 296 296 296 296 296 296 296 297 297 298 298 299 300 301 303 305 307 311 313 315 317 318 320 322 323 324 324 325 325 326 327 327 328 329 331 332 334 334 335 334 334
324 327 330 335 332 325 321 320 324 322 315 317 316 315 315 312 315 314 315 314 310 311 308 309 310 307 306 305 305 304 302 301 300 299 297 297 297 296 295 295 296 297 297 295 294 295 295 295 295 295 295 295 295 295 295 295 295 295 295 295 295 295 295 296 296 296 296 296 296 297 297 298 300 301 304 306 309 312 314 317 319 320 322 323 324 324 325 325 326 327 328 328 329 331 333 333 333
324 330 340 340 331 328 327 323 321 322 318 317 315 313 312 311 316 316 315 313 311 312 309 310 310 306 306 305 305 302 301 302 301 299 298 298 297 296 295 294 295 296 297 296 294 294 294 294 295 295 295 295 295 295 295 295 295 295 295 295 295 295 295 295 295 295 295 295 295 296 296 296 296 297 298 298 300 302 304 308 311 313 315 318 319 320 322 323 323 324 326 326 326 327 329 331 333
330 334 345 331 322 326 326 322 319 323 320 317 315 310 309 311 315 316 315 313 311 313 310 308 307 307 307 305 304 301 301 302 301 300 299 298 297 297 296 294 294 295 296 296 294 294 294 294 294 294 294 294 295 295 295 295 295 295 295 295 295 294 295 294 294 295 295 295 295 295 295 295 295 295 296 296 296 297 297 299 301 303 305 307 310 313 316 319 321 322 323 324 324 324 326 328 330
331 336 345 327 317 321 321 319 319 320 318 318 315 310 310 311 311 310 312 313 311 310 307 304 304 309 308 304 304 301 301 301 300 301 299 299 298 297 296 294 293 294 295 295 294 294 294 294 294 294 294 294 294 294 294 294 294 294 294 294 294 294 294 294 294 294 294 294 294 295 295 295 295 295 295 295 295 295 296 296 296 297 298 298 300 302 305 309 314 319 320 322 322 322 323 326 328
323 333 342 331 319 319 318 318 320 321 318 319 314 311 312 307 307 309 310 313 310 305 303 303 303 308 308 306 307 302 300 301 300 301 299 299 298 297 296 295 293 293 294 294 294 294 294 293 293 294 294 294 294 294 294 294 294 294 294 294 294 294 294 294 294 294 294 294 294 294 294 294 295 295 295 295 295 295 295 295 295 295 296 296 296 297 297 299 303 308 314 317 318 319 321 323 326
324 335 341 333 321 318 318 318 321 321 319 319 312 311 313 306 306 308 305 306 307 303 304 305 302 305 305 306 306 301 300 300 300 299 298 297 296 296 295 294 294 293 293 294 294 293 294 293 293 294 294 294 294 294 294 294 294 294 294 294 294 294 294 294 294 294 294 294 294 294 294 294 294 294 294 294 294 294 294 294 294 294 295 295 295 296 296 296 296 299 303 308 311 314 316 319 322
328 339 341 332 325 320 318 318 319 322 322 319 311 310 315 308 305 304 301 302 305 304 303 302 300 300 302 302 302 300 300 300 298 297 295 295 294 294 295 294 294 293 293 293 293 293 293 293 293 293 293 293 294 293 294 294 294 294 294 294 294 294 294 294 294 294 294 294 294 294 294 294 294 294 294 294 294 294 294 294 294 294 294 294 295 295 295 295 295 295 296 299 302 305 309 313 318
336 339 335 325 323 322 320 320 317 320 322 316 311 312 316 312 306 303 303 304 303 303 302 300 299 298 298 299 299 300 300 298 297 296 295 295 294 294 294 294 294 293 293 293 293 293 293 293 293 293 293 293 293 294 294 294 294 294 294 294 294 294 294 294 294 294 294 294 294 293 293 293 293 293 293 293 293 293 293 293 293 293 293 294 294 294 295 295 295 295 295 295 297 299 303 308 312
338 336 329 326 327 321 317 320 316 316 318 315 312 312 313 313 308 304 307 306 302 305 303 300 300 299 298 298 299 299 298 297 296 295 295 294 294 294 294 294 294 293 293 293 293 293 293 293 293 293 293 293 293 293 293 294 294 294 294 294 294 294 294 294 294 294 294 294 294 294 294 293 293 293 292 292 292 292 292 293 293 293 293 293 293 293 294 294 295 295 295 295 295 296 298 301 305
328 329 325 329 332 321 314 319 318 315 315 315 313 310 310 310 307 305 308 307 303 306 305 302 302 299 299 298 297 297 297 296 295 295 294 294 295 294 294 294 294 293 293 293 293 292 292 292 293 293 293 293 293 293 293 293 294 294 294 294 294 294 294 294 294 294 294 294 293 293 293 293 293 293 293 293 293 293 293 292 292 292 292 293 293 293 293 293 294 294 295 295 295 295 295 297 299
318 322 322 324 324 318 315 317 318 315 312 315 315 311 310 307 305 306 308 309 306 306 305 304 303 299 299 298 295 296 295 295 295 294 294 294 295 294 294 294 293 293 292 292 292 292 292 292 292 292 292 293 293 293 293 293 293 293 293 294 293 294 294 294 293 293 293 293 293 293 293 293 293 293 293 293 293 293 293 293 293 293 292 292 292 293 293 293 293 294 294 294 294 294 294 295 296
314 315 316 318 317 314 316 316 315 313 310 314 315 312 311 307 306 307 308 312 311 306 304 303 301 298 298 297 295 295 294 294 294 294 294 295 294 294 294 294 293 293 292 292 292 292 292 292 292 292 292 292 292 292 293 293 293 293 293 293 293 293 293 293 293 293 293 293 292 292 292 292 292 292 292 292 292 292 293 293 293 293 292 292 292 292 293 293 294 294 294 294 294 294 294 295 295
314 313 313 316 316 314 315 316 315 313 312 316 315 312 310 307 309 307 306 311 309 303 303 302 299 297 296 296 295 295 295 293 294 294 294 295 294 294 294 293 293 292 292 292 292 292 291 291 292 292 292 292 292 292 292 292 292 292 291 291 292 292 292 292 292 292 292 292 292 292 291 291 291 291 291 291 291 291 291 292 292 292 292 292 292 292 292 293 294 294 294 294 294 294 294 295 295
317 316 315 314 313 314 315 314 316 314 314 314 311 310 310 311 311 306 306 308 303 299 299 298 296 295 295 295 295 295 294 293 294 295 295 295 294 294 293 293 292 292 292 292 291 291 291 291 291 291 291 291 291 291 291 291 291 291 291 291 291 291 291 291 291 292 292 291 291 290 290 290 290 290 290 290 290 290 290 290 290 291 291 291 291 291 291 292 293 294 294 294 295 295 295 295 296
318 315 316 314 313 316 314 313 316 315 313 310 308 310 311 310 308 307 310 306 299 297 296 295 295 295 295 296 296 294 293 293 294 295 295 295 294 293 293 292 292 292 292 292 291 291 291 291 291 291 291 290 291 291 291 291 291 291 290 290 290 290 290 290 290 290 290 290 290 290 289 289 288 288 288 288 289 289 289 289 289 289 289 290 290 291 291 291 292 293 293 294 294 295 296 296 296
315 315 317 315 314 316 313 312 316 315 312 309 309 312 310 306 305 309 310 303 298 297 296 296 296 296 296 296 295 293 292 292 294 294 294 294 294 293 292 292 292 292 292 292 291 291 291 291 291 291 290 290 290 290 291 290 290 290 289 289 289 289 289 289 289 289 289 289 288 288 288 287 287 287 287 287 288 288 288 288 288 288 288 289 289 290 291 291 292 292 293 293 294 295 296 297 297
313 315 316 313 313 314 313 313 314 312 311 309 310 312 309 303 306 311 306 298 297 297 297 296 296 296 296 295 294 293 292 293 294 294 294 293 293 293 292 292 292 292 291 291 291 291 291 291 291 290 290 290 290 290 290 290 289 289 289 288 288 288 288 288 288 288 288 288 287 287 287 286 287 286 286 286 286 286 287 287 287 287 287 287 288 289 290 291 291 292 292 293 294 294 295 296 297
312 314 314 313 315 313 309 311 311 309 310 311 310 310 308 303 307 312 304 297 297 297 297 296 296 296 295 295 295 293 292 293 294 293 293 292 293 292 292 292 292 292 291 291 291 291 291 290 290 289 289 289 289 289 289 289 288 288 288 288 288 288 287 287 287 287 287 287 287 286 286 286 286 286 286 286 285 285 285 286 286 286 286 286 287 288 288 289 290 291 292 292 293 294 295 295 296
312 313 314 317 322 316 308 310 311 308 311 313 311 310 310 308 310 310 301 296 296 296 296 296 296 296 295 296 295 294 293 293 294 293 293 292 292 292 292 292 292 292 291 291 291 291 291 290 289 289 289 289 288 288 288 288 288 288 287 287 287 287 286 286 286 286 286 287 286 286 286 286 286 286 285 285 285 285 285 285 285 285 285 285 286 286 286 287 289 291 292 293 293 293 294 295 296
312 312 314 321 326 321 309 309 310 307 311 314 311 313 315 313 311 304 297 296 296 297 296 295 295 295 295 295 295 295 293 292 293 293 293 292 292 292 292 292 291 291 291 291 290 290 290 289 289 289 288 288 288 288 287 287 287 287 287 286 286 285 285 285 285 286 286 286 286 286 286 286 286 286 285 285 285 285 285 285 285 285 285 284 285 285 285 285 287 289 291 292 293 294 295 295 296
315 312 320 324 320 325 318 311 312 309 311 312 310 314 315 316 315 302 296 296 297 297 296 295 296 295 295 295 295 296 294 292 292 294 293 292 292 292 292 292 291 291 291 290 290 290 290 289 288 288 288 288 287 287 287 287 287 286 286 285 285 285 285 285 285 286 286 287 287 287 286 286 285 285 284 284 284 284 284 284 284 284 284 284 284 284 284 285 286 287 289 290 292 293 294 295 296
322 314 324 327 318 326 325 312 313 312 310 309 310 316 314 315 315 301 295 296 296 298 297 295 296 295 295 295 294 295 294 292 292 294 293 292 292 292 291 292 291 291 291 290 290 290 289 288 288 288 288 287 287 287 287 287 286 286 286 285 285 285 285 285 285 286 287 287 286 285 285 284 284 284 284 283 284 284 284 284 284 284 284 283 283 283 283 284 285 286 287 289 291 292 294 294 295
329 318 321 330 321 321 321 313 312 313 311 310 310 316 315 315 311 298 295 296 296 298 297 295 296 295 294 294 294 294 294 293 292 292 293 293 292 292 291 291 291 291 290 290 290 289 289 288 288 288 287 287 287 286 286 286 286 285 285 285 285 285 284 284 284 286 287 286 285 284 283 283 283 283 283 283 283 284 284 284 285 285 284 283 282 282 282 283 283 284 286 287 289 291 292 294 295
333 323 320 326 320 316 319 316 312 310 311 311 311 313 312 313 310 299 296 296 296 297 297 296 295 294 294 294 294 293 293 293 292 291 292 293 292 291 292 291 291 290 290 290 290 289 288 288 288 287 287 287 286 286 286 286 285 285 285 285 285 284 284 284 284 285 286 285 284 283 283 283 283 283 283 283 284 284 284 284 285 285 284 283 282 282 282 282 283 284 284 285 286 288 290 292 293
326 324 321 323 319 314 317 317 311 308 310 312 312 313 311 311 311 303 296 296 297 297 297 297 295 295 294 293 293 293 292 293 292 291 292 292 292 291 291 291 291 290 290 290 289 289 288 288 287 287 287 286 286 285 285 285 285 285 285 285 285 285 284 284 284 285 286 285 284 283 283 283 283 283 283 283 283 283 283 283 283 283 282 281 281 281 282 282 282 283 282 283 284 285 287 289 291
321 322 321 321 319 315 314 314 311 307 309 311 310 310 310 309 310 306 299 296 296 297 297 297 296 295 294 294 293 293 293 292 291 291 292 292 291 291 291 291 290 290 290 290 289 289 288 288 287 287 287 286 286 285 285 285 285 285 285 285 285 285 285 284 285 285 285 284 284 283 283 283 283 283 283 282 282 282 282 281 281 281 281 280 280 281 282 282 282 282 281 282 283 284 285 287 289
315 318 317 316 315 313 312 311 310 308 309 312 310 309 309 308 308 308 302 297 296 297 297 297 297 296 295 294 294 293 293 292 291 291 291 291 291 291 291 290 290 290 290 290 289 288 288 288 288 287 287 286 286 285 284 284 284 284 284 283 284 285 285 284 286 286 286 285 285 284 284 283 283 282 282 282 281 281 281 280 280 280 280 280 280 281 281 281 281 281 281 281 282 283 284 286 288
312 314 314 314 314 312 310 308 309 308 308 313 313 311 310 308 308 308 306 300 299 298 297 298 297 296 296 295 294 294 293 292 292 291 290 290 291 291 291 290 290 290 290 290 289 288 288 288 288 287 287 286 285 285 284 283 283 283 283 282 282 284 284 284 285 286 285 285 285 284 283 283 282 281 281 280 280 280 280 280 279 279 280 280 280 280 280 280 280 280 280 280 281 282 284 286 288
313 314 314 315 314 315 314 310 309 308 308 312 313 310 308 308 307 307 307 304 302 299 298 299 298 297 296 295 295 294 294 293 293 291 290 289 290 290 290 290 290 290 290 289 289 288 288 288 287 287 286 286 285 284 284 283 283 282 282 282 282 283 283 283 283 284 283 282 282 282 281 281 280 280 279 279 279 279 279 279 279 279 279 279 279 279 279 279 280 280 280 280 280 282 284 286 287
315 315 315 318 315 316 320 315 311 309 308 310 310 308 308 308 307 307 307 306 304 302 300 300 299 299 298 296 296 295 294 293 292 292 290 289 289 289 289 289 289 290 290 289 289 288 288 288 287 287 286 286 285 284 284 283 283 282 282 282 282 282 283 282 282 282 281 280 280 280 280 280 279 279 279 279 279 279 279 279 279 279 279 279 279 279 279 279 279 279 279 280 281 282 283 284 285
320 317 314 317 316 315 318 315 311 312 312 309 309 313 315 313 310 310 308 304 304 303 302 301 299 299 299 298 297 296 295 294 292 292 291 289 288 288 289 289 289 289 289 289 289 289 288 288 287 287 286 285 285 284 283 283 282 282 282 282 283 282 282 282 281 281 281 280 280 280 280 279 279 278 278 278 278 278 278 278 278 278 278 278 278 278 278 278 278 279 279 279 280 281 281 282 283
324 322 315 316 317 315 315 314 312 317 319 310 310 319 322 316 312 314 312 307 306 304 302 301 300 299 299 298 297 296 295 294 293 292 291 289 288 288 288 289 289 289 290 289 289 289 288 288 287 286 286 285 285 284 283 283 282 282 281 281 281 281 281 281 281 280 280 280 280 280 280 279 279 278 278 278 278 278 278 278 278 278 278 278 278 278 278 278 278 278 278 279 279 279 280 281 282
322 321 315 314 314 312 313 313 312 319 320 310 311 320 319 315 316 318 316 312 311 307 305 303 301 299 299 298 298 297 296 294 293 292 291 290 288 288 287 288 289 290 290 289 289 289 288 288 287 286 286 285 284 284 283 282 282 281 281 280 280 280 279 280 279 279 279 279 279 279 278 278 278 277 277 277 278 278 277 277 277 277 277 277 277 277 277 277 277 278 278 278 278 279 279 280 281
323 316 315 317 313 313 313 310 310 315 314 309 310 313 314 313 315 316 313 312 312 309 307 304 301 300 299 298 298 297 296 294 293 292 291 290 288 288 287 288 289 290 290 289 289 289 288 288 287 286 285 285 284 284 283 282 282 281 280 280 280 279 279 279 279 278 278 278 278 278 278 277 277 277 277 277 277 277 277 277 277 277 277 277 277 277 277 277 277 277 277 277 278 278 279 279 280
321 311 312 314 311 312 312 309 310 310 309 312 312 308 312 315 314 312 308 309 314 316 315 310 305 302 299 299 298 297 296 295 293 292 291 290 289 288 288 288 290 290 290 289 289 289 288 287 287 286 285 285 284 283 283 282 281 280 280 280 279 279 279 278 278 278 278 277 277 277 277 277 277 276 276 277 277 277 277 277 277 277 277 277 276 276 276 276 276 276 276 277 277 277 278 278 278
313 307 309 311 311 312 311 310 312 313 314 317 315 310 315 320 315 311 308 310 317 319 319 314 309 304 301 299 299 297 296 294 293 293 291 290 289 288 288 289 290 290 289 289 289 288 288 287 287 286 285 284 284 283 282 282 281 280 280 279 279 278 278 278 278 278 277 277 277 277 276 276 276 276 276 276 276 276 276 276 276 276 276 276 276 276 276 276 276 276 275 276 276 276 276 276 277
306 309 313 316 315 311 310 312 313 318 320 319 315 310 315 321 317 314 313 317 322 320 317 315 311 309 304 300 298 298 296 294 293 292 291 289 288 288 289 289 290 289 289 289 288 288 288 287 287 286 285 284 283 283 282 281 281 280 279 279 278 278 278 277 277 277 277 276 276 276 276 276 276 276 276 276 276 276 275 276 276 276 276 276 275 275 275 275 275 275 275 275 275 275 275 276 277
308 315 318 320 321 316 316 316 316 321 323 318 311 307 311 317 318 315 315 317 318 316 318 318 316 314 308 302 298 297 296 295 293 292 291 289 288 288 287 288 289 289 289 288 288 288 288 287 286 285 285 284 283 282 282 281 280 280 279 278 278 278 277 277 277 277 276 276 276 276 275 275 275 276 276 276 275 275 275 275 275 275 275 275 275 275 275 275 275 275 275 275 275 275 275 275 276
310 317 320 321 324 326 325 322 319 323 322 311 305 307 311 313 313 313 314 316 314 311 311 314 314 312 310 304 299 297 295 294 293 291 290 289 289 288 286 287 288 288 289 288 288 288 287 287 286 285 284 283 283 282 281 281 280 280 279 278 278 277 277 277 276 276 276 276 275 275 275 275 275 275 275 275 275 275 274 274 275 275 275 275 275 275 275 275 275 274 274 274 274 274 274 275 275
309 314 320 322 327 332 333 327 319 319 320 309 302 309 314 312 314 313 311 312 314 310 309 310 310 307 307 304 299 297 295 294 292 291 290 289 289 288 286 287 287 288 288 288 288 288 287 286 285 284 284 283 282 281 281 280 280 280 278 277 277 277 276 276 276 276 275 275 275 275 274 274 274 274 274 274 274 274 274 274 274 274 274 274 274 275 274 274 274 274 274 274 274 274 274 274 275
308 313 317 320 329 333 333 331 324 319 321 312 304 311 318 315 316 315 310 309 310 310 308 307 305 301 301 302 300 297 295 293 292 291 290 290 289 288 287 287 287 288 288 288 288 288 287 286 285 284 283 283 282 281 280 280 279 279 278 277 277 276 276 275 275 275 275 275 274 274 274 274 274 274 274 274 274 274 274 274 274 274 274 274 274 274 274 274 274 274 274 273 273 273 273 274 274
310 311 314 319 324 324 322 323 321 318 319 314 309 314 317 312 311 311 311 312 310 307 304 304 303 299 299 300 299 297 294 292 291 291 290 290 288 287 287 287 287 288 288 288 288 287 286 285 284 283 283 282 281 280 280 279 278 278 277 277 276 276 275 275 275 275 274 274 274 273 273 273 273 273 273 273 273 273 274 274 274 274 274 274 274 274 274 274 274 273 273 273 273 273 273 273 274
311 309 314 315 313 318 322 320 313 311 317 317 315 316 313 310 311 309 308 310 308 305 303 303 302 298 299 300 299 297 294 292 291 290 290 289 288 287 287 287 287 288 288 288 288 287 286 285 284 283 282 281 281 280 279 278 277 277 276 276 276 275 275 274 274 274 274 273 273 273 273 273 273 273 273 273 273 273 273 273 273 274 274 274 274 274 274 273 273 273 273 273 273 273 273 273 274
312 315 315 309 308 313 320 321 316 315 318 318 317 315 312 312 313 308 307 310 309 306 304 303 301 298 299 299 298 296 294 292 291 290 290 289 288 287 287 287 287 288 288 288 288 286 285 284 283 283 282 281 280 279 278 277 276 276 276 276 275 275 274 274 273 273 273 273 273 273 273 272 273 273 272 273 273 273 273 273 273 273 274 274 274 274 274 273 273 273 272 272 272 272 272 273 273
309 312 307 307 314 315 314 316 319 319 318 320 320 315 311 312 313 311 312 313 312 311 308 305 303 299 298 298 297 295 293 292 291 290 290 289 288 287 286 286 287 288 288 288 287 285 284 284 283 282 281 280 279 278 277 277 276 275 275 275 275 274 274 273 273 273 272 272 272 272 272 272 272 272 272 272 272 272 273 273 273 273 273 273 273 273 273 273 272 272 272 272 272 272 272 272 273
302 304 302 306 313 315 314 314 317 320 318 317 318 315 312 314 318 319 317 314 314 314 314 312 307 300 297 297 297 295 293 292 291 290 289 289 288 286 286 286 287 288 288 287 286 285 284 283 282 281 280 279 278 277 277 276 275 275 275 275 274 274 273 273 272 272 272 272 272 272 272 272 272 272 272 272 272 272 272 272 273 273 273 273 273 272 272 272 272 272 272 272 272 272 272 273 273
304 306 306 305 305 309 314 311 312 318 318 317 319 317 313 314 319 322 318 317 316 314 316 316 310 302 297 296 296 295 293 291 291 290 289 289 287 286 286 287 287 287 287 286 285 284 283 282 281 281 279 278 277 277 276 275 275 274 274 274 273 273 272 272 272 272 271 272 272 272 271 271 271 271 272 272 272 272 272 272 272 272 272 272 272 271 271 271 271 271 272 272 272 272 273 273 274
307 309 310 307 305 309 314 312 310 312 314 319 320 317 313 313 317 319 317 319 319 316 316 315 309 303 298 295 295 295 293 291 291 289 289 289 287 286 285 285 286 286 286 285 284 284 283 282 281 280 278 278 277 276 275 274 274 274 274 273 273 272 272 272 271 271 271 271 271 271 271 271 271 271 271 271 271 271 271 271 271 271 271 270 270 270 270 270 271 271 271 272 272 273 273 274 274
Wind_Speed
4 5 5 4 4 5 3 4 2 2 4 3 1 1 2 3 2 2 1 1 2 3 3 3 6 5 6 7 9 7 4 3 3 3 2 2 6 12 13 15 15 15 16 16 15 14 17 19 18 15 14 15 15 14 13 12 11 10 10 10 11 11 10 9 9 9 8 8 9 11 12 12 12 14 13 13 13 13 12 12 13 13 13 13 13 13 14 14 14 14 14 15 15 15 15 16 17
3 4 3 4 3 3 1 3 3 3 5 3 2 2 3 2 2 3 4 2 4 3 2 8 11 10 11 10 8 6 5 2 1 3 2 1 5 12 15 16 17 17 17 16 16 16 18 20 21 19 18 17 17 17 16 15 13 11 11 11 12 12 13 12 11 11 10 9 9 11 11 11 13 14 14 14 15 15 15 14 14 14 14 14 14 14 14 14 14 14 14 15 15 15 15 16 18
2 3 3 5 2 3 1 3 2 1 4 2 3 3 2 1 3 1 3 7 9 8 4 7 8 6 6 6 4 4 1 1 3 0 2 6 3 10 16 16 18 18 16 16 16 17 18 19 19 20 21 20 19 19 18 18 16 15 13 13 13 12 13 13 13 13 13 13 12 12 12 12 13 13 13 13 14 16 16 16 16 15 15 15 15 15 15 15 15 15 15 15 15 15 15 16 16
2 1 2 4 2 3 3 4 2 4 3 2 2 4 2 4 6 4 3 7 7 5 2 4 5 3 4 6 2 3 2 1 4 1 1 7 5 7 14 17 18 19 18 17 17 18 19 19 18 19 20 20 20 19 19 19 18 17 16 15 14 14 13 13 13 12 12 13 12 12 12 13 13 13 13 13 14 14 15 16 17 17 17 17 18 17 16 15 16 16 16 16 16 16 16 16 16
2 1 1 2 2 1 3 3 2 4 1 4 3 4 5 5 7 5 1 1 2 1 1 3 3 2 3 4 0 2 1 1 3 5 4 5 6 9 15 18 19 20 20 20 20 20 20 19 19 19 19 20 20 20 19 18 18 18 17 17 16 15 15 14 14 12 12 13 12 11 11 12 12 12 13 14 14 15 15 15 16 17 18 19 19 19 19 17 17 17 17 17 17 17 17 17 18
3 3 3 3 2 1 3 2 2 2 3 5 3 4 6 6 7 7 3 4 3 2 2 3 4 4 3 2 2 2 2 1 3 5 5 6 9 12 16 18 19 21 22 22 22 22 22 20 20 20 20 20 20 20 19 19 18 18 17 17 16 16 15 15 14 14 14 13 13 12 12 13 12 12 13 14 14 15 15 15 15 16 17 18 19 20 20 20 19 19 18 18 18 18 18 18 18
4 2 4 4 2 2 3 3 4 2 2 4 3 5 6 6 7 8 7 5 3 5 4 3 6 8 2 1 2 3 2 3 4 6 8 10 12 14 17 18 20 21 21 22 22 23 22 21 21 21 20 20 20 20 20 20 19 18 18 17 17 16 16 15 14 14 14 13 13 13 13 14 14 14 13 13 13 14 15 15 15 15 16 17 18 18 19 20 21 21 20 19 19 19 19 19 19
4 1 1 3 2 3 4 3 3 2 1 2 3 4 5 7 9 7 6 3 2 1 3 4 4 6 0 1 2 1 7 9 10 12 13 14 15 16 17 18 19 20 20 21 21 22 22 22 22 21 21 20 20 20 20 19 19 19 18 18 18 17 17 16 15 14 14 14 13 13 13 13 14 14 14 14 14 14 14 15 15 15 16 17 17 18 19 20 20 21 20 20 20 21 21 21 21
5 2 0 3 3 3 3 2 1 2 2 3 3 2 2 6 7 5 5 3 4 5 5 6 1 3 3 4 3 2 6 11 13 14 15 16 16 17 17 18 19 20 20 20 21 21 22 22 22 21 21 21 20 21 20 20 19 19 18 18 18 17 17 16 16 16 15 15 14 13 13 13 13 13 14 14 14 14 14 14 15 15 16 17 17 18 19 21 21 21 21 21 21 21 22 22 21
4 3 1 3 3 3 3 0 1 2 3 4 4 4 4 5 6 5 6 5 5 7 5 3 3 4 6 5 2 2 6 12 14 15 15 17 16 18 18 18 18 18 19 20 20 21 21 21 21 21 21 21 20 20 20 20 20 20 19 19 18 18 17 17 16 16 16 16 16 15 14 14 13 13 13 14 14 14 14 14 13 13 14 15 17 18 18 20 21 22 22 22 22 21 22 22 22
2 3 2 4 4 2 3 4 3 3 4 4 3 3 5 6 6 4 5 6 4 5 4 2 4 5 7 3 3 4 11 13 13 15 14 15 16 17 18 18 17 17 18 19 20 20 20 20 20 20 20 20 19 20 20 20 20 20 20 20 19 19 18 18 17 17 17 17 17 16 16 15 15 15 15 15 15 15 15 15 15 14 14 14 16 17 18 18 19 21 22 23 23 23 22 22 23
1 3 4 4 3 3 4 5 4 4 5 3 1 2 3 7 7 5 6 7 5 5 4 3 5 6 6 2 3 5 11 13 13 14 13 13 15 16 17 18 17 16 17 17 19 20 20 20 20 20 19 19 19 19 19 19 19 19 19 19 19 20 19 19 18 18 17 17 17 17 17 16 16 16 16 17 17 16 17 17 17 17 17 17 17 18 19 20 20 21 22 23 24 24 24 24 23
3 2 5 3 3 3 4 5 3 1 4 3 3 0 3 5 4 7 9 7 7 6 4 5 7 6 4 3 2 3 9 14 14 13 12 12 13 15 15 16 17 16 16 16 18 19 19 20 20 19 19 18 18 18 18 19 19 19 19 19 19 19 20 20 20 19 19 18 18 18 18 18 17 17 18 18 18 18 18 19 18 18 19 20 20 20 20 20 20 21 21 23 24 24 25 25 24
3 3 5 3 1 3 4 3 2 3 3 5 3 1 2 2 1 5 9 8 7 5 2 3 8 5 2 2 1 3 10 16 15 14 12 11 12 13 13 15 16 16 16 16 17 18 18 19 19 19 19 18 18 18 18 18 19 19 19 19 19 19 20 20 20 20 20 20 20 19 19 19 19 19 19 19 19 20 20 20 20 20 21 21 21 22 22 22 21 22 22 23 24 24 25 25 25
3 2 5 4 2 1 3 2 3 5 5 5 4 4 4 2 1 3 5 8 6 3 1 2 4 2 3 7 5 7 14 18 16 15 13 12 12 12 13 14 15 16 16 16 16 17 17 18 18 19 18 18 18 18 18 18 19 18 19 19 19 19 20 20 20 20 20 21 21 21 21 20 20 20 20 21 21 21 21 21 21 21 22 22 23 23 23 23 22 23 23 24 25 25 25 25 25
3 3 5 3 2 2 3 2 3 4 5 5 3 6 7 2 1 3 2 4 4 1 2 1 1 1 5 6 5 14 21 19 17 16 15 14 13 13 13 14 14 15 15 15 16 16 16 16 17 18 17 18 18 18 18 18 18 18 18 19 19 19 20 20 21 21 21 21 22 22 22 22 23 23 23 23 23 23 23 23 23 23 23 23 24 24 24 24 24 23 23 24 25 25 25 25 26
3 4 5 2 3 4 4 5 5 4 5 4 4 5 7 0 2 2 1 4 5 2 3 1 3 2 2 3 8 24 24 19 19 17 15 14 12 12 12 12 13 14 15 15 15 14 14 15 16 16 16 17 17 17 17 17 18 18 18 18 19 19 20 21 21 22 23 23 23 24 24 25 25 25 25 25 25 25 25 25 25 25 25 25 25 25 25 25 25 24 24 24 25 25 26 26 26
4 3 3 1 3 4 5 8 7 5 5 6 6 6 7 6 3 3 2 6 3 3 4 3 4 5 3 7 18 26 22 20 19 16 14 11 9 10 11 11 12 13 13 13 14 13 13 14 15 15 15 16 16 16 16 17 17 17 17 18 18 19 20 21 22 23 23 24 24 25 26 27 27 28 28 27 27 26 26 26 26 26 27 27 27 27 26 26 26 26 26 26 26 26 26 26 27
4 3 3 2 5 4 4 7 6 3 5 7 5 5 6 7 7 5 3 2 2 4 1 3 4 4 5 12 19 21 21 20 17 15 13 11 10 10 11 11 11 12 12 13 13 13 13 13 14 14 15 15 15 15 16 16 16 17 17 17 18 19 20 21 22 23 23 24 24 25 26 27 27 28 29 29 29 28 28 28 28 28 28 28 29 29 28 27 27 27 27 27 27 27 27 27 26
2 4 3 4 5 3 3 6 7 4 4 8 5 3 2 3 7 5 5 5 5 7 6 3 5 6 6 9 15 18 19 18 16 15 13 12 12 12 12 11 11 11 12 12 11 12 12 12 13 13 14 14 15 15 15 16 16 17 17 18 18 19 20 21 22 23 23 24 24 25 25 26 27 27 28 28 28 29 29 30 30 30 30 30 30 31 31 30 30 29 28 28 29 28 28 27 27
2 4 2 5 3 1 3 6 6 2 2 6 4 3 2 3 4 4 8 7 5 8 10 9 11 14 12 8 12 17 17 16 16 15 14 14 13 11 11 11 11 11 10 10 10 10 11 11 11 12 12 13 13 14 15 16 16 16 17 18 18 19 20 21 22 23 24 24 25 26 26 26 27 27 27 28 28 28 29 30 31 32 32 32 32 31 31 31 31 31 31 31 30 30 30 29 29
1 1 3 5 2 1 2 4 3 3 4 4 5 4 4 4 2 5 10 8 6 6 8 8 9 15 16 13 14 15 15 15 15 16 15 14 13 12 11 11 11 10 9 8 8 9 9 9 9 9 10 11 12 13 14 14 15 15 17 17 18 19 20 21 22 22 23 25 25 26 26 27 27 27 28 28 28 29 29 30 31 31 32 33 33 33 32 31 31 31 33 33 32 31 31 30 30
1 2 0 3 3 1 1 2 3 5 6 5 6 4 4 6 2 4 9 9 5 4 6 7 8 13 16 15 14 12 11 12 14 16 15 14 13 12 11 11 11 10 9 7 7 7 7 7 7 7 8 9 10 11 11 12 13 14 16 17 18 19 20 20 21 22 23 23 24 24 25 26 27 27 27 27 27 27 28 28 30 31 32 32 33 33 34 32 31 31 32 32 32 32 32 32 31
4 1 1 2 3 3 2 1 2 4 6 6 4 3 5 8 4 2 8 8 3 4 4 10 13 15 15 13 11 10 11 13 15 15 14 13 12 12 11 11 10 9 8 6 6 6 6 6 6 6 7 8 8 9 10 11 12 13 15 16 17 18 18 19 20 21 21 22 22 22 22 22 23 24 24 25 26 26 26 26 27 28 29 31 31 31 33 34 33 33 32 32 31 31 32 33 33
4 1 1 1 2 4 2 2 1 2 3 2 4 4 4 7 3 2 8 7 1 1 6 11 13 14 12 10 10 10 11 13 15 14 13 12 12 12 12 11 11 9 8 7 5 5 4 4 4 4 5 6 7 8 9 10 12 13 14 15 15 16 16 17 18 19 19 20 20 20 21 21 22 22 22 23 23 24 24 25 25 26 26 27 28 28 29 32 34 34 34 33 32 32 31 32 33
1 3 2 1 2 4 1 2 2 2 1 3 6 3 4 3 1 3 7 5 3 5 8 9 11 11 10 9 9 10 10 12 15 15 15 14 14 14 13 13 11 9 8 7 5 4 3 3 3 3 5 6 7 8 9 10 11 12 12 12 13 14 15 16 17 17 18 18 19 20 21 21 22 22 22 22 23 24 25 26 26 26 26 25 25 26 26 28 32 34 35 35 34 34 33 32 31
3 4 4 2 2 4 1 5 3 1 1 3 6 2 3 2 1 4 4 5 6 8 8 8 10 11 11 9 9 11 11 14 18 17 15 15 15 16 15 14 12 10 8 7 6 3 2 2 2 3 4 5 6 7 8 8 9 10 10 10 11 13 14 15 16 16 17 18 20 21 21 22 23 23 23 23 24 25 26 27 28 28 27 26 25 25 26 27 29 31 33 34 35 34 34 34 32
2 2 3 3 3 3 0 3 3 0 2 4 5 1 2 1 2 6 5 7 8 10 10 9 10 10 10 9 8 9 11 16 19 17 16 17 18 18 17 15 14 11 9 7 6 3 3 2 2 2 3 5 5 7 7 7 7 9 9 10 11 13 13 14 15 16 18 20 21 21 23 25 25 24 25 25 25 25 25 27 27 27 27 27 26 27 27 27 28 29 29 31 34 35 35 34 33
1 2 1 6 6 4 1 2 2 2 3 5 5 2 4 5 7 5 5 9 7 9 10 9 9 8 8 9 7 7 11 16 17 16 18 19 19 19 17 15 13 12 10 8 5 4 3 2 2 2 3 4 5 5 6 6 7 9 10 10 11 12 12 13 14 16 19 20 21 23 25 26 26 25 25 25 25 25 26 27 27 27 26 27 28 29 29 28 28 29 29 30 31 33 36 35 33
1 3 2 4 7 5 1 0 2 4 3 4 4 4 5 10 11 4 6 10 9 9 10 9 9 8 7 8 7 7 11 14 15 17 20 19 19 18 16 15 13 12 10 8 6 5 4 3 2 2 3 3 4 5 6 7 8 9 10 10 10 11 12 13 14 17 19 21 23 24 26 27 26 26 25 25 26 26 27 28 28 28 29 30 30 30 29 28 27 29 29 30 31 31 33 35 34
1 2 2 3 3 3 5 1 5 5 2 3 4 4 7 9 9 5 8 10 12 12 11 10 9 8 8 8 8 8 10 14 17 20 21 20 20 18 17 16 14 13 11 9 7 5 5 3 3 3 3 3 4 5 7 8 9 9 10 10 10 11 13 14 15 17 20 22 24 25 26 26 26 25 25 25 26 27 27 28 28 29 30 31 31 30 29 28 28 28 28 29 32 32 32 33 33
3 2 3 3 0 5 8 3 5 5 0 2 4 4 9 9 7 6 9 9 12 12 11 12 11 11 10 9 9 8 9 14 18 21 22 22 21 19 18 17 16 14 12 10 7 6 5 4 3 3 3 3 5 6 8 9 9 9 10 11 11 12 14 15 15 18 22 23 24 24 25 25 24 24 25 25 26 27 27 28 30 30 31 30 30 29 27 26 26 28 28 28 31 33 33 34 33
4 1 3 4 2 4 7 3 1 2 1 1 4 4 7 7 3 4 8 9 10 10 10 12 12 12 11 9 9 8 8 11 14 20 24 24 22 20 19 18 17 15 12 10 8 6 5 4 3 2 3 4 5 6 8 9 9 10 11 12 12 13 15 15 15 19 22 23 23 23 23 24 24 24 25 26 27 28 29 30 31 32 32 31 30 29 27 26 25 26 28 26 27 32 33 34 35
4 3 1 4 3 3 5 4 2 1 3 4 5 6 10 10 2 5 9 10 11 11 11 13 13 12 11 9 9 9 10 10 11 18 25 26 24 21 20 19 17 14 12 11 7 5 4 3 2 2 3 4 5 6 8 9 10 11 12 13 13 14 16 15 16 20 23 22 22 23 24 25 25 26 28 28 29 30 30 31 32 32 32 31 30 29 28 27 25 24 28 29 28 30 32 34 34
3 3 2 3 3 4 5 6 2 2 1 5 5 6 14 16 7 7 10 10 13 14 13 13 13 12 10 10 10 10 11 12 13 19 25 27 25 23 21 20 17 15 13 11 8 5 3 3 2 2 3 4 5 6 8 9 11 12 12 14 15 16 17 16 17 21 22 22 22 23 25 26 27 28 29 30 30 30 30 30 31 31 30 30 29 28 27 26 25 26 29 32 33 32 32 33 34
6 5 4 4 5 6 6 6 4 1 3 7 8 9 12 17 12 7 9 11 13 14 12 10 10 10 10 10 11 11 13 13 14 20 25 27 26 24 23 21 18 16 15 12 9 6 4 2 2 2 3 4 5 7 9 10 12 13 13 14 16 17 18 17 19 22 22 22 22 24 26 27 27 29 30 30 29 29 29 28 29 29 28 27 27 26 26 25 27 29 30 31 33 35 34 32 31
5 4 4 5 5 7 6 4 5 1 1 9 10 9 12 16 17 10 8 11 13 13 12 12 11 11 12 13 13 14 14 12 13 20 25 26 27 25 24 23 20 18 17 14 11 7 4 2 1 2 3 4 6 7 8 10 11 12 13 14 17 19 18 19 21 22 22 23 24 25 27 28 28 29 30 30 29 28 27 27 27 27 27 26 26 26 26 28 28 30 30 30 30 33 35 31 28
3 3 3 5 5 7 8 3 5 2 3 7 7 7 12 14 16 11 7 10 14 15 16 16 15 13 12 14 16 16 12 8 10 17 22 26 27 26 25 24 22 21 19 16 12 8 4 1 1 2 3 4 5 6 8 9 10 11 12 13 16 18 18 18 20 21 22 22 24 25 26 26 27 28 29 28 27 26 26 27 27 28 28 28 29 29 29 30 30 30 30 31 30 30 33 32 27
3 2 1 4 4 5 8 3 5 2 3 6 7 8 13 13 16 16 10 12 14 14 18 18 16 15 14 15 16 15 12 10 11 14 19 25 27 27 26 26 24 22 19 17 13 9 5 2 1 2 3 4 5 6 7 9 10 11 12 14 15 17 17 17 19 21 20 21 23 24 24 25 26 27 28 27 26 26 26 28 29 29 29 29 30 33 32 31 30 30 30 31 31 31 30 30 27
3 3 2 5 4 1 5 4 4 3 2 5 8 11 13 10 14 16 10 11 12 11 15 15 13 15 16 16 16 16 17 16 14 14 16 21 25 26 27 27 25 22 19 17 14 10 7 3 2 2 3 4 5 6 8 9 11 12 13 15 16 16 17 17 18 20 19 20 23 23 24 25 26 27 27 26 25 26 26 28 29 29 29 28 28 31 33 32 30 30 30 29 29 28 29 30 28
3 5 6 6 6 5 6 4 5 5 3 3 7 10 10 5 8 11 4 4 9 9 10 12 12 13 13 13 14 16 17 16 16 16 15 18 23 25 27 28 26 24 21 17 14 11 8 5 3 3 4 5 5 6 8 10 12 13 15 18 19 19 20 20 21 22 23 23 25 25 25 26 27 28 28 27 27 27 27 28 29 30 30 29 28 29 31 33 32 31 29 29 28 28 30 33 32
4 5 9 9 8 7 5 4 5 4 4 3 6 6 8 1 3 8 5 3 8 6 9 12 12 11 11 13 15 14 14 13 14 16 15 18 22 24 27 28 27 25 21 17 14 12 9 6 4 4 5 5 6 7 8 11 12 14 16 18 19 19 20 21 21 23 26 27 27 28 28 28 29 29 29 29 29 29 29 29 30 31 32 30 29 30 32 33 33 31 29 29 31 30 30 31 32
3 4 7 7 5 3 2 3 3 1 3 3 3 1 8 3 3 7 9 6 9 8 9 12 11 10 12 14 14 13 13 13 13 14 15 17 21 23 24 27 28 25 20 16 15 13 10 7 5 5 6 6 7 8 9 11 13 14 15 16 16 16 17 19 20 22 25 26 27 28 28 28 28 29 29 29 30 30 30 31 31 31 32 32 31 31 33 34 34 33 32 32 33 33 31 30 31
4 4 5 6 5 4 3 2 0 3 3 3 2 4 7 8 5 7 7 7 12 13 12 12 10 12 14 15 15 13 14 14 13 14 15 17 22 25 25 28 29 25 20 18 16 14 11 8 6 6 6 7 8 9 10 12 13 14 15 15 17 17 17 20 22 23 24 25 27 28 29 29 29 29 29 30 32 32 32 32 31 31 32 33 32 32 33 34 35 36 34 34 34 34 32 31 32
5 5 6 6 6 5 4 4 2 2 3 5 4 5 4 9 5 3 4 4 10 14 14 13 11 13 15 15 15 14 14 14 14 15 15 17 23 27 28 30 30 25 21 19 17 14 12 9 7 7 6 7 8 9 11 12 13 14 15 15 17 18 19 21 23 25 26 25 27 29 29 30 31 30 31 31 32 32 32 33 33 32 32 34 33 33 35 35 36 37 36 35 35 36 34 33 35
3 6 6 5 5 4 4 3 2 2 2 8 7 8 4 8 5 3 1 3 9 11 11 11 9 10 13 14 13 13 12 12 14 15 15 18 25 29 29 30 29 25 21 19 17 15 13 10 8 8 7 7 8 10 11 13 13 14 15 16 18 19 20 22 24 26 27 27 28 30 30 31 33 34 34 33 33 32 32 32 33 33 33 34 35 35 36 36 36 36 37 37 36 38 38 36 37
5 6 5 5 5 4 4 2 3 3 5 9 7 13 8 6 4 6 4 5 8 8 8 8 8 8 10 11 11 12 12 11 12 12 13 17 24 28 29 29 29 26 22 20 19 17 14 11 9 9 7 6 8 10 12 13 14 14 16 17 18 20 21 23 24 27 28 28 29 31 32 33 35 37 37 36 36 34 33 33 34 35 35 36 36 37 37 38 38 38 37 38 38 38 38 37 37
5 4 4 3 4 3 4 4 4 0 6 6 3 8 9 8 7 5 6 8 7 8 7 8 10 9 8 9 9 11 12 11 11 11 11 13 17 22 25 26 27 26 24 23 21 18 15 11 9 9 7 6 8 10 12 13 14 15 16 17 19 20 21 22 24 26 28 28 29 31 33 34 36 38 39 39 39 37 36 37 37 37 37 37 37 38 39 38 38 39 38 38 38 38 38 37 37
4 4 4 2 3 4 3 3 1 3 7 3 1 3 5 11 11 8 10 12 10 10 9 10 12 11 8 8 9 9 9 10 10 11 11 12 13 17 21 24 26 27 26 25 22 19 16 12 9 9 7 7 9 11 12 13 14 16 17 18 19 20 21 22 24 26 27 28 29 31 33 35 38 40 40 41 41 40 39 40 40 39 39 39 39 39 39 38 37 38 39 39 39 39 38 38 39
5 5 4 4 2 1 3 4 2 5 6 2 3 3 3 9 8 12 18 17 15 12 9 10 11 11 9 7 8 8 8 10 10 10 12 12 13 16 21 24 25 26 27 25 22 19 16 11 8 8 8 7 9 11 12 13 15 16 17 18 19 19 21 22 24 26 28 28 29 31 33 35 37 40 42 43 44 43 42 41 41 41 41 40 40 39 39 38 37 38 40 41 41 40 39 39 41
4 5 5 5 5 4 4 4 4 7 6 3 2 2 4 5 4 8 14 14 14 11 7 7 9 8 7 6 6 8 9 9 9 10 12 13 14 18 22 24 26 27 27 24 21 19 15 10 8 7 7 7 9 11 12 13 15 16 17 18 19 19 21 22 24 25 27 28 30 31 34 35 37 40 43 45 45 44 44 44 42 42 42 41 41 41 40 39 39 39 41 42 42 41 40 41 42
2 3 4 3 5 5 3 3 4 1 5 4 3 4 6 4 4 6 6 8 11 9 6 8 11 8 4 6 7 8 8 9 9 11 12 13 15 19 22 24 25 26 25 24 21 19 15 9 7 7 7 8 9 11 12 13 15 16 17 18 19 20 21 23 25 26 27 28 30 33 35 37 38 40 42 44 45 44 44 44 43 44 44 43 43 42 40 40 39 40 41 42 42 41 39 41 41
2 3 4 5 4 5 2 2 1 4 3 6 2 6 9 5 5 7 6 8 11 8 7 11 12 7 4 7 9 8 8 9 10 11 12 12 14 18 22 24 25 25 24 23 21 18 13 8 7 7 7 8 9 10 11 13 14 16 17 18 19 20 21 23 25 27 28 29 31 33 35 37 39 40 41 43 43 44 44 43 44 45 46 44 43 41 39 39 39 40 41 41 42 40 40 41 40
5 3 5 3 2 4 3 1 3 3 3 6 3 8 14 9 7 2 4 7 12 10 11 13 10 6 6 10 10 9 8 8 9 10 10 11 13 17 21 24 26 27 25 23 21 16 11 8 7 7 7 8 8 10 11 12 14 16 17 18 20 21 22 23 25 27 29 30 33 34 35 37 39 40 41 41 41 43 44 43 43 44 44 42 40 39 38 38 38 40 41 42 42 40 39 41 40
4 4 3 3 3 2 2 2 3 2 3 6 8 10 14 11 8 4 4 9 11 10 11 12 10 9 9 11 11 8 7 7 9 10 10 10 12 17 21 23 25 26 24 22 20 15 10 8 7 7 7 8 9 10 11 13 14 16 17 19 20 21 22 24 25 27 28 30 33 35 36 37 38 39 39 39 40 41 42 42 42 41 41 39 38 37 38 37 38 41 41 40 39 38 38 41 41
2 1 2 2 2 4 3 3 3 3 3 6 8 10 14 10 7 6 9 11 10 10 10 11 12 11 11 11 10 8 8 9 10 10 11 11 12 17 22 24 25 25 23 22 19 14 10 8 7 7 8 8 9 10 11 13 14 16 18 19 20 22 23 24 25 27 28 31 32 34 35 37 37 37 37 38 39 39 39 40 40 39 38 38 39 37 37 36 37 39 38 35 35 34 35 37 38
4 3 2 2 1 2 1 2 2 4 4 4 3 8 17 8 7 8 10 9 11 11 10 11 10 10 11 11 10 9 9 10 10 10 11 11 12 16 21 24 25 24 23 22 18 13 10 9 8 8 8 8 9 10 11 13 14 16 18 19 21 22 23 25 26 26 28 31 32 33 34 35 36 36 35 36 37 37 37 37 38 38 36 37 39 38 36 34 34 34 33 32 31 31 32 33 33
7 7 7 7 5 4 1 5 3 3 4 5 4 8 19 8 6 6 7 7 10 10 11 12 8 9 11 11 11 10 10 11 11 10 10 10 11 15 19 21 22 23 23 21 17 13 11 10 9 8 8 8 9 10 11 13 14 16 18 20 21 23 23 24 25 27 29 30 31 32 33 33 34 34 34 35 35 36 36 36 37 39 37 36 37 36 34 32 32 32 32 31 30 30 31 32 32
Wind_Direction
151 142 147 146 128 128 83 64 82 339 72 87 341 77 218 221 197 185 108 43 61 1 314 72 71 74 102 113 126 122 70 110 164 141 177 227 68 41 41 49 48 50 48 52 52 51 52 47 41 40 43 43 44 45 41 37 32 28 25 17 15 12 9 360 347 343 332 325 322 322 320 314 311 309 305 304 303 299 301 302 301 301 303 303 302 306 307 308 309 310 310 308 307 306 303 302 304
147 144 137 146 117 120 189 66 95 345 52 83 280 169 247 302 78 184 194 124 112 165 133 84 82 77 95 114 119 95 43 4 262 152 94 36 86 45 49 56 52 56 55 58 58 59 58 53 47 45 47 47 47 45 44 43 40 39 33 29 25 23 24 19 13 8 359 350 339 338 335 328 323 318 313 311 310 306 304 302 301 301 302 303 301 301 301 302 303 304 305 306 307 306 305 300 302
146 149 134 147 91 50 86 41 91 68 72 114 261 247 271 98 101 124 176 138 136 162 149 85 82 67 82 85 59 74 67 321 10 206 37 39 64 37 51 61 60 63 62 65 64 64 62 56 53 49 49 50 51 50 50 48 47 46 42 37 31 30 28 25 25 20 15 11 3 358 354 348 343 339 331 323 319 315 312 309 305 303 301 302 302 299 298 299 298 299 299 302 304 301 299 297 299
172 151 162 156 73 32 64 42 129 119 105 180 227 255 247 156 134 109 133 144 159 173 160 72 67 1 76 85 24 74 113 245 12 10 70 35 41 42 58 67 67 70 70 72 71 70 65 60 59 55 53 53 53 53 52 51 51 48 45 42 36 34 29 27 27 23 20 16 10 4 2 359 352 351 346 340 335 327 322 318 314 310 305 305 304 300 299 298 296 297 297 298 298 298 295 294 294
186 151 186 152 86 55 94 74 111 96 185 185 152 250 243 180 146 144 181 144 212 248 149 101 94 308 69 88 76 114 153 230 36 62 94 57 73 72 70 73 73 74 74 74 74 74 69 66 65 62 60 58 56 54 54 53 52 50 47 44 40 37 33 30 28 25 22 17 11 3 2 0 353 351 348 347 345 339 334 328 323 317 313 310 306 302 299 298 296 295 295 296 294 294 293 294 293
137 111 61 79 84 132 117 102 109 87 210 172 141 230 226 182 147 146 130 62 36 21 87 89 127 136 67 36 77 111 244 189 77 68 88 90 90 83 78 77 76 77 75 73 73 74 71 70 69 68 66 63 60 58 57 56 54 52 49 45 42 38 35 31 28 27 23 19 13 7 3 0 357 353 351 350 346 343 341 337 332 326 321 316 312 308 302 298 298 297 294 294 293 292 290 289 290
148 123 33 68 44 30 103 135 160 152 179 170 167 191 193 175 148 137 129 101 51 11 37 91 127 114 82 238 79 24 47 123 108 100 106 103 96 88 83 79 78 77 74 71 70 71 71 70 70 69 68 66 64 61 58 57 55 53 51 48 45 41 38 33 29 25 21 17 12 8 4 2 0 357 354 351 346 342 340 339 337 333 325 319 316 312 306 302 301 302 297 294 293 291 289 285 285
134 150 10 93 37 25 90 118 172 182 162 224 224 187 184 173 157 135 135 140 139 61 91 149 116 91 75 92 118 17 82 111 114 111 112 104 97 89 85 81 79 75 71 69 67 67 68 67 67 67 67 66 64 63 60 57 54 52 51 48 46 44 40 37 33 28 21 16 11 6 3 1 0 358 356 353 348 343 341 339 337 335 328 320 316 311 307 305 306 305 300 297 295 292 291 288 285
85 42 57 84 71 41 56 66 186 218 261 261 243 218 200 172 157 125 129 133 140 151 167 193 140 99 162 87 117 237 99 121 122 114 110 102 95 89 85 81 77 74 70 66 64 63 63 63 62 62 61 62 61 60 59 56 54 51 49 46 44 41 38 36 33 30 25 20 15 10 5 1 359 358 356 353 349 344 343 342 338 335 330 325 320 315 312 309 307 305 302 301 299 295 293 292 289
55 22 145 80 81 60 35 217 241 230 248 258 243 211 187 171 148 121 131 140 139 150 188 188 92 120 140 125 149 194 144 141 126 115 109 103 95 88 84 80 77 74 71 66 64 63 62 61 59 58 57 57 56 55 55 53 51 48 47 44 42 40 36 33 30 27 24 21 18 15 11 8 3 0 356 352 347 342 341 338 332 330 325 323 324 322 320 315 310 307 304 303 300 297 294 293 292
42 353 95 77 80 119 183 198 243 253 268 293 282 226 188 162 127 94 105 125 120 136 182 108 102 137 119 134 223 166 158 153 134 124 114 105 97 88 83 79 78 75 72 67 64 63 62 60 59 58 55 54 54 53 52 49 47 45 43 41 39 37 34 31 28 25 21 18 16 14 11 9 7 4 360 354 349 345 342 336 332 333 324 317 318 317 318 317 314 312 307 303 299 295 291 290 291
91 329 65 90 136 179 188 168 217 261 309 322 203 278 163 142 129 134 132 136 139 142 206 188 150 141 110 165 231 168 164 166 151 134 124 112 100 90 84 79 79 77 74 69 65 63 60 58 57 56 55 54 52 50 50 48 45 42 40 38 36 33 31 29 26 23 20 18 14 11 8 6 4 2 0 357 354 350 347 341 338 338 334 327 321 317 318 316 315 315 312 307 301 296 292 288 288
123 157 85 107 162 153 151 143 204 275 324 263 184 327 108 131 156 171 146 131 150 156 237 212 155 119 114 195 231 182 175 172 161 146 140 122 104 94 88 81 78 80 78 72 65 61 58 55 54 54 53 52 50 48 47 46 43 41 39 36 34 31 29 27 25 22 19 17 13 10 7 4 2 360 358 356 354 351 348 345 342 342 340 336 332 327 322 316 312 312 313 312 305 299 296 291 287
135 157 103 114 94 116 144 130 188 155 238 246 192 140 91 102 184 165 135 133 174 181 246 180 146 123 114 172 231 218 182 171 163 155 150 127 111 101 95 85 78 80 79 74 67 61 57 53 52 52 51 50 48 46 44 44 42 40 38 36 34 31 29 26 24 22 19 17 13 10 7 3 1 359 357 354 353 350 347 344 343 344 341 337 334 331 327 321 315 310 309 310 307 302 297 294 291
129 138 87 108 71 107 165 161 163 153 212 230 177 137 88 38 114 130 140 149 193 234 100 115 138 170 174 170 205 202 174 165 159 155 149 132 121 111 103 91 79 79 79 75 70 63 57 53 52 51 50 48 45 44 43 42 41 38 37 35 33 31 29 27 24 22 19 16 14 11 7 4 1 358 355 353 352 350 347 344 342 342 340 337 333 331 330 327 323 317 311 309 309 308 302 296 292
116 109 68 98 124 164 182 165 134 139 221 225 173 135 98 352 76 123 242 145 153 335 65 149 321 309 179 197 205 167 161 160 156 152 144 133 126 117 109 96 82 78 77 74 70 64 59 54 51 51 49 46 43 43 41 40 39 36 35 34 32 30 27 25 23 21 18 16 14 11 9 6 3 0 357 354 351 349 347 346 343 342 339 336 333 331 329 328 327 323 318 313 310 310 307 300 293
68 78 67 88 155 189 188 170 170 168 222 235 206 172 121 86 350 139 290 75 121 75 41 267 319 360 177 221 153 150 154 157 156 152 145 138 130 119 110 100 86 75 73 70 67 63 58 53 50 49 47 45 41 40 38 36 35 32 30 29 28 26 25 23 20 19 16 15 13 11 9 7 5 2 360 356 353 350 347 346 344 343 341 337 334 331 329 327 327 324 321 318 314 310 308 305 300
54 85 88 139 178 195 184 180 194 169 187 204 202 187 141 156 189 172 82 50 74 76 25 352 6 15 77 120 135 145 152 157 158 157 154 152 146 123 104 95 84 73 69 67 63 58 54 50 47 44 43 42 38 36 35 32 30 28 25 24 23 21 20 19 17 16 14 13 12 10 9 6 5 2 0 358 354 352 349 346 344 343 341 338 336 333 331 328 326 324 322 319 316 313 310 308 306
83 113 78 232 200 201 193 178 189 184 177 182 200 194 172 179 163 156 150 160 168 130 357 353 46 45 94 122 134 145 154 158 162 162 161 160 150 125 105 96 87 77 69 66 60 54 50 46 42 39 38 35 32 31 29 28 26 23 21 19 19 18 16 15 14 13 12 11 9 8 7 4 2 0 359 357 355 353 351 348 346 344 341 338 336 334 332 330 327 323 321 319 317 314 313 311 310
138 111 67 249 216 219 222 182 194 231 180 161 194 195 193 196 147 157 162 161 198 187 191 171 171 177 153 144 142 148 156 161 168 167 166 158 140 124 115 107 96 84 75 70 61 54 50 45 42 38 33 29 26 26 24 23 21 18 17 16 15 13 12 12 11 11 11 11 9 7 5 3 0 359 357 355 354 352 350 349 347 345 342 340 337 334 332 331 328 324 322 320 318 317 314 313 312
127 105 142 238 198 173 223 193 203 234 160 159 161 122 195 210 142 161 142 139 236 231 210 193 185 175 167 172 156 154 159 164 172 175 173 157 139 130 122 111 105 95 85 79 66 57 51 47 42 39 33 27 24 23 23 21 19 16 15 15 13 11 10 10 9 9 10 10 9 6 3 2 359 358 356 354 353 351 349 347 345 343 341 339 337 335 333 331 329 327 324 322 320 319 317 315 313
66 103 180 220 160 84 223 193 189 125 103 110 125 159 190 161 142 174 161 176 225 232 224 206 184 171 166 168 163 161 163 169 177 180 175 156 143 138 128 119 114 101 92 84 69 60 56 52 44 41 35 30 28 25 25 21 19 18 16 15 13 12 11 10 10 9 9 9 8 5 2 360 358 357 355 354 352 349 347 344 342 340 337 335 335 334 332 331 329 327 326 324 322 320 317 315 313
48 315 212 215 190 251 257 179 189 130 121 142 169 195 141 139 228 199 187 216 239 258 231 180 167 170 162 156 160 165 170 179 182 181 172 155 147 140 134 128 119 105 100 93 79 69 61 57 49 47 40 34 33 29 26 23 23 22 19 17 13 11 11 11 11 11 11 10 8 5 2 359 357 355 354 352 349 345 342 340 338 335 333 331 331 330 329 329 327 325 324 324 322 320 317 314 313
77 15 342 174 185 241 298 83 160 138 157 188 178 136 141 183 219 152 208 237 292 288 209 148 148 155 155 154 162 173 176 184 184 179 169 156 150 142 137 132 123 117 117 113 99 82 69 65 58 52 44 40 36 31 29 27 27 24 20 17 13 10 11 13 13 13 13 11 9 7 4 1 358 355 352 348 344 340 337 334 332 331 330 329 329 327 326 326 324 322 321 321 320 318 315 313 312
68 127 278 138 201 255 309 58 113 177 196 160 130 147 210 214 181 156 225 238 346 101 128 131 140 146 158 166 170 176 179 187 185 180 174 165 157 149 146 142 136 133 137 133 116 97 81 71 63 54 44 44 39 33 32 30 28 24 20 15 10 9 12 16 15 14 13 12 10 8 6 3 0 357 353 349 344 342 339 337 334 330 327 326 326 324 323 323 321 320 319 318 317 314 312 310 309
167 161 221 232 286 297 318 185 215 231 242 118 154 193 293 271 175 245 226 191 143 123 123 137 145 153 169 173 176 178 178 186 185 179 175 170 166 160 154 153 151 147 149 141 131 121 95 80 70 55 45 44 38 35 34 32 29 24 20 11 6 10 15 18 16 14 13 13 11 10 9 5 3 1 357 354 351 349 347 345 341 336 331 328 325 322 320 318 317 316 315 314 313 312 309 307 305
167 167 208 203 285 304 212 209 233 232 252 192 185 211 299 304 313 251 220 161 152 130 136 158 157 167 175 176 183 181 185 187 182 176 171 171 171 167 162 163 163 157 156 152 148 145 120 106 77 58 51 47 40 39 39 36 30 24 17 8 7 13 17 17 14 13 14 14 13 10 8 6 4 3 360 358 355 351 348 345 342 338 335 332 328 323 319 316 312 310 310 310 309 308 306 304 302
143 165 241 295 329 321 112 223 247 146 225 187 161 194 276 314 262 235 196 162 161 146 156 174 172 178 179 181 188 187 195 192 185 179 175 177 176 172 170 169 169 167 165 162 162 155 141 128 91 78 64 52 44 41 41 36 26 20 14 8 10 15 16 13 11 13 15 15 13 10 7 6 4 2 360 358 354 349 344 340 338 337 336 333 328 322 318 315 312 308 306 305 305 305 303 301 300
145 75 328 307 355 26 30 250 222 164 208 175 144 282 254 214 235 243 164 157 155 152 167 180 184 188 187 190 194 198 205 198 193 191 184 179 176 175 174 172 171 174 173 171 170 161 154 152 135 106 76 59 46 36 33 29 18 14 11 7 9 13 12 8 9 14 15 15 12 9 7 5 3 2 359 356 352 346 341 339 337 336 334 332 328 324 320 317 314 311 309 305 303 302 301 299 298
221 44 58 320 0 14 296 294 147 153 192 166 144 285 246 219 239 238 150 156 146 162 182 187 192 194 196 198 199 207 210 205 201 197 190 181 177 178 176 174 174 177 177 178 174 166 171 174 158 122 87 64 39 21 20 21 13 9 7 6 6 8 7 5 10 14 14 13 10 8 6 3 2 360 357 353 349 345 342 340 338 335 333 332 331 330 325 319 314 310 310 308 304 301 298 297 296
347 347 47 21 6 296 284 258 151 157 198 123 123 269 257 248 256 201 169 168 160 178 193 192 198 199 201 204 202 210 213 209 206 199 194 186 181 180 179 179 177 180 180 181 179 171 176 176 162 134 92 56 30 12 12 16 9 4 1 2 3 3 4 4 9 12 12 10 7 5 3 1 359 357 355 351 347 345 341 338 336 334 333 332 332 331 328 323 317 312 310 308 306 302 297 295 293
27 338 310 343 18 277 301 278 172 170 317 79 135 248 270 273 270 193 174 178 177 187 196 195 202 203 203 207 204 211 216 213 211 205 198 191 186 182 182 183 181 183 184 184 180 173 178 175 161 132 80 41 20 7 9 11 4 359 358 0 1 1 2 3 6 9 9 8 4 2 359 357 356 355 353 349 346 344 341 338 336 334 332 331 329 328 326 322 318 313 309 308 305 302 299 296 292
2 42 262 285 267 296 317 319 218 199 134 182 203 236 275 277 282 189 177 184 193 197 202 204 207 208 206 207 206 209 213 215 216 212 203 195 190 185 183 185 183 184 187 187 180 175 180 169 156 111 63 27 13 5 4 4 359 356 357 358 358 357 358 359 3 7 9 6 3 359 355 354 353 352 350 348 345 343 341 339 338 336 333 330 327 324 320 318 316 311 308 306 303 301 299 297 294
323 8 261 259 251 277 305 309 330 65 165 220 228 234 258 261 238 179 192 190 198 208 210 209 210 211 208 206 210 210 209 211 213 211 204 196 190 186 186 187 185 186 189 189 183 177 178 161 141 82 47 18 6 360 359 358 355 355 354 354 353 353 356 358 0 6 7 4 360 355 351 350 350 349 348 346 344 342 341 338 336 336 331 326 322 319 317 317 316 312 309 306 301 298 296 294 293
235 261 261 281 275 242 258 274 303 48 240 235 223 238 257 265 251 191 201 196 203 215 213 213 213 210 210 209 212 213 212 214 211 205 200 195 189 185 186 187 186 189 190 190 188 180 173 157 123 66 29 10 1 355 356 353 352 352 350 351 351 351 354 356 359 3 4 0 356 351 347 348 347 346 345 344 343 340 338 335 332 330 325 320 316 314 314 314 313 311 309 306 302 297 292 291 291
188 204 200 237 269 261 234 240 266 8 301 262 237 238 258 269 265 220 203 202 212 223 221 221 218 211 212 215 216 215 217 218 209 202 198 194 190 187 186 186 187 190 190 190 189 185 174 156 108 50 16 2 355 352 352 348 350 350 346 346 347 350 353 354 358 360 359 356 352 348 345 346 345 343 342 341 339 336 333 329 325 321 317 314 312 310 309 308 309 309 309 307 303 299 293 289 290
141 151 192 231 241 271 257 233 287 356 235 266 251 245 257 265 269 249 198 202 220 226 228 229 217 211 213 214 218 217 219 218 202 202 201 195 192 189 187 186 186 187 189 192 191 189 183 157 80 33 6 355 350 347 345 344 346 346 342 340 342 348 352 351 354 354 352 350 348 346 344 343 342 340 338 337 335 332 327 322 317 314 314 314 311 307 305 306 306 307 307 305 302 299 294 291 292
105 165 227 270 230 258 270 258 315 324 179 265 272 263 257 256 267 262 182 195 223 217 221 228 216 213 215 215 220 219 218 208 196 206 204 199 196 191 188 187 187 187 189 194 195 194 190 188 359 11 355 349 343 335 334 338 342 342 337 335 338 345 350 348 349 349 346 344 343 342 341 339 337 335 334 332 329 325 320 317 315 315 316 316 312 309 306 306 306 306 306 304 301 296 291 290 293
101 144 193 282 245 271 291 315 351 347 176 269 287 279 265 255 262 262 211 202 228 217 217 224 214 211 215 216 219 217 214 205 199 207 204 202 199 194 191 189 190 192 191 194 197 198 195 211 307 347 343 334 328 321 326 333 338 341 337 336 339 343 346 344 344 347 344 338 337 337 336 335 332 330 328 326 322 318 316 315 316 316 315 314 311 309 307 306 305 303 303 302 300 295 290 289 290
144 151 167 261 265 289 285 309 342 304 218 270 288 281 268 251 254 261 234 214 237 228 223 228 217 215 217 216 217 212 210 207 202 204 202 201 200 198 196 192 192 192 191 194 199 201 202 213 278 313 322 318 315 316 324 331 337 340 338 340 343 343 342 340 341 344 339 331 331 331 331 330 328 324 322 321 317 314 313 314 314 312 311 310 308 305 304 303 301 300 299 297 295 295 294 292 288
244 198 195 238 257 233 236 286 329 316 304 313 315 297 279 237 237 261 269 240 258 243 231 238 226 223 226 222 223 217 212 208 203 203 200 198 200 201 200 195 192 192 192 196 201 204 208 216 260 293 302 305 310 318 325 332 339 340 341 344 346 346 343 341 341 339 334 329 328 328 328 327 325 322 320 319 315 313 312 313 312 310 310 308 305 302 300 299 299 296 295 291 288 290 293 292 288
292 231 207 223 243 244 261 325 349 347 326 341 11 325 289 233 205 266 285 260 261 242 226 239 230 221 225 227 227 219 215 212 206 206 200 197 199 200 201 198 194 193 195 198 202 207 211 220 254 285 294 305 314 322 327 334 340 342 345 346 346 344 338 335 335 331 327 326 325 325 325 325 323 319 318 317 315 314 313 313 312 309 308 306 304 302 299 297 297 295 291 287 284 284 287 287 286
291 247 199 205 211 219 266 346 8 302 261 299 53 311 273 276 152 252 269 265 269 258 234 239 233 219 220 227 227 216 212 210 208 207 200 198 198 197 201 200 195 194 196 196 202 209 214 225 253 281 295 309 318 325 329 335 342 344 345 344 341 335 324 321 325 322 319 319 319 320 319 319 318 316 315 315 316 316 314 312 310 307 305 304 302 300 297 296 295 293 290 286 283 282 281 280 282
240 223 135 134 138 161 188 118 103 241 271 299 180 163 273 279 218 237 271 286 282 275 259 247 232 222 223 227 226 216 211 207 205 205 200 198 198 197 199 197 196 196 194 194 201 209 214 226 252 281 297 310 319 326 331 336 342 342 340 338 336 331 320 318 321 319 316 316 316 316 315 314 314 314 314 316 317 316 314 311 308 305 303 302 300 297 294 293 292 292 290 286 283 280 276 275 278
237 190 123 114 126 146 147 125 199 269 3 296 220 150 269 273 241 262 322 290 270 271 268 259 235 222 226 229 226 218 214 208 205 205 201 198 198 199 197 194 196 195 192 195 202 208 214 226 253 278 294 309 321 327 332 337 341 338 335 334 332 327 321 320 321 317 316 317 314 313 313 312 314 314 314 316 316 315 313 310 307 304 301 300 298 294 292 291 289 289 289 286 283 279 275 273 274
197 137 104 72 78 83 88 114 140 49 334 268 220 164 235 272 221 176 40 239 247 258 265 266 251 227 223 228 225 218 215 210 208 207 202 201 200 198 195 194 195 193 191 197 201 205 214 226 253 277 292 310 322 328 332 336 338 334 332 334 328 322 321 323 321 318 317 317 314 312 313 313 315 316 317 316 313 312 310 308 305 302 299 297 295 293 291 289 287 286 286 285 282 279 276 273 271
129 106 69 37 41 50 51 65 74 54 277 271 223 179 196 278 241 183 193 209 213 226 251 270 269 248 228 225 221 213 212 209 207 206 201 200 199 196 194 193 192 189 191 196 199 206 214 227 254 277 293 313 322 328 331 332 334 332 333 334 325 320 323 324 319 316 316 315 311 311 312 313 315 316 316 315 313 312 310 307 304 301 299 296 293 292 290 289 288 287 286 284 282 279 276 274 271
104 86 62 19 340 13 19 357 43 70 256 278 251 183 189 244 248 212 232 242 217 204 231 258 265 261 237 220 218 212 210 207 201 199 197 192 193 194 193 191 187 186 190 195 199 206 213 226 255 277 294 315 322 326 328 329 331 333 335 331 322 321 324 320 314 311 311 310 309 310 312 313 315 315 314 313 312 311 309 307 304 302 299 295 292 291 290 288 287 286 285 283 281 279 276 274 271
96 94 84 53 328 354 344 313 67 227 249 257 163 166 216 246 245 231 242 254 241 217 218 243 261 265 248 221 219 215 205 202 196 193 193 190 191 193 190 187 183 184 190 195 199 204 211 225 252 276 293 315 322 323 326 327 330 334 333 326 320 323 322 316 311 308 307 308 308 310 312 313 313 313 312 311 310 310 308 306 304 302 299 296 294 292 290 288 286 284 284 282 281 278 276 274 271
149 148 135 143 127 48 278 275 282 270 271 256 161 155 256 272 258 225 225 234 236 231 225 235 253 262 255 233 218 215 207 201 196 193 194 195 195 192 188 184 182 184 190 195 198 201 209 224 249 272 291 314 319 320 323 325 330 332 327 321 320 322 319 314 309 306 306 307 307 308 309 310 309 309 308 308 308 308 306 305 303 301 299 298 296 293 291 288 285 284 283 282 280 278 276 274 270
173 157 139 159 158 165 221 232 248 275 291 268 208 191 228 261 274 220 218 232 239 244 250 252 259 261 256 247 222 215 212 201 196 196 197 200 196 190 187 184 184 186 190 193 196 198 206 224 246 266 289 309 315 317 321 323 327 326 320 317 320 319 316 311 307 305 305 306 308 308 307 306 306 305 306 306 307 307 306 305 304 301 300 299 297 294 291 288 285 284 283 282 280 277 275 272 269
200 129 120 185 186 169 203 213 195 258 320 278 212 223 226 224 278 248 226 245 243 243 260 264 264 257 237 242 233 220 214 201 196 198 200 200 194 190 187 184 186 187 188 191 193 196 204 221 242 262 286 302 310 314 317 320 321 317 315 317 319 318 314 310 307 305 306 307 308 307 306 306 305 304 305 305 305 306 306 306 304 302 301 299 298 295 291 288 286 285 284 282 279 278 275 272 269
167 141 178 215 184 134 143 268 31 66 303 270 220 254 273 299 284 246 201 233 245 244 251 252 255 250 221 235 234 221 214 202 199 201 199 194 189 191 190 185 185 185 186 189 191 194 203 218 237 256 280 294 304 310 312 316 314 310 313 317 319 317 313 309 307 307 309 309 308 306 305 306 305 304 304 304 305 305 305 305 303 302 302 300 298 296 291 288 287 285 283 281 279 278 275 272 269
132 183 212 190 123 92 107 247 341 39 259 274 279 267 277 283 279 286 127 217 246 247 244 250 254 239 225 240 238 223 214 203 203 203 197 192 189 192 190 185 184 184 186 189 189 191 200 216 234 253 274 289 301 306 307 310 307 306 312 317 318 316 313 310 309 309 311 310 308 308 306 305 305 304 304 303 304 304 305 305 303 301 302 300 297 296 292 289 287 286 284 281 279 277 274 271 268
130 206 225 118 140 169 114 158 238 241 237 273 283 282 276 255 243 268 207 211 231 240 242 250 249 231 229 241 239 223 208 201 203 201 195 193 191 190 188 183 183 184 185 186 184 187 198 213 229 250 271 286 297 302 305 306 304 306 313 317 318 316 313 311 311 311 311 309 308 309 307 305 304 304 303 303 304 304 304 304 303 300 300 300 296 295 294 290 288 287 284 281 279 276 273 271 268
78 293 318 27 158 177 165 158 179 183 204 265 290 297 279 245 186 217 228 208 211 223 233 243 239 228 225 234 235 218 205 205 203 201 198 194 192 191 186 180 178 181 182 182 182 187 197 209 225 245 265 279 291 299 302 302 304 312 317 318 318 316 313 313 313 313 312 310 309 308 306 304 303 303 303 304 304 304 303 303 303 299 298 300 297 294 295 292 288 287 282 279 279 276 272 271 269
156 190 219 245 169 114 213 224 142 141 184 240 277 281 275 260 146 197 221 201 205 209 221 240 234 224 226 228 228 215 207 210 204 199 198 191 187 187 183 179 177 178 178 178 183 190 196 209 225 242 261 276 289 297 296 297 307 316 318 319 318 316 315 315 315 314 311 311 310 308 306 305 304 304 304 305 304 303 304 302 302 299 296 298 297 294 294 290 286 284 281 278 279 275 272 271 269
175 195 196 194 172 120 208 249 216 155 190 208 173 259 273 270 133 195 212 195 212 204 218 241 229 216 227 227 224 216 208 210 205 198 193 186 183 182 177 174 172 172 173 177 184 191 198 211 225 242 261 276 287 290 292 301 314 320 320 321 318 316 317 316 315 314 312 311 310 309 308 307 305 305 305 305 303 303 304 301 299 297 295 296 296 292 291 289 285 283 281 280 280 276 273 270 267